Latest Coastal Weather Observations for Point Perpendicular

IDN60701

Issued at 6:12 am EST Saturday 25 June 2016 (issued every 10 minutes, with the page automatically refreshed every 10 minutes)

About coastal observations | Map of coastal stations | Coastal observations for NSW | Marine services | Other Formats
Station Details ID: 068151 Name: POINT PERPENDICULAR AWS Lat: -35.09 Lon: 150.80 Height: 85.0 m
Data from the previous 72 hours. | See also: Recent months at Point Perpendicular
Date/Time
EST
Temp
°C
Wind Pressure Rain since
9am
mm
Weather Cloud Vis
km
Sea
Height
m
Swell
Dir  Spd
kts
Gust
kts
hPa Trend Height
m
Period
s
Dir
25/06:00am 7.9 - - - 1015.2 - 0.0 - - - - - - -
25/05:30am 8.0 - - - 1014.8 - 0.0 - - - - - - -
25/05:00am 8.2 - - - 1014.4 - 0.0 - - - - - - -
25/04:30am 8.4 - - - 1013.8 - 0.0 - - - - - - -
25/04:00am 8.2 - - - 1013.6 - 0.0 - - - - - - -
25/03:30am 8.0 - - - 1013.2 - 0.0 - - - - - - -
25/03:00am 8.1 - - - 1012.9 - 0.0 - - - - - - -
25/02:30am 8.3 - - - 1012.6 - 0.0 - - - - - - -
25/02:00am 8.5 - - - 1012.3 - 0.0 - - - - - - -
25/01:30am 8.5 - - - 1011.8 - 0.0 - - - - - - -
25/01:00am 8.7 - - - 1011.3 - 0.0 - - - - - - -
25/12:30am 8.7 - - - 1011.2 - 0.0 - - - - - - -
25/12:00am 9.1 - - - 1010.8 - 0.0 - - - - - - -
 
Date/Time
EST
Temp
°C
Wind Pressure Rain since
9am
mm
Weather Cloud Vis
km
Sea
Height
m
Swell
Dir  Spd
kts
Gust
kts
hPa Trend Height
m
Period
s
Dir
24/11:30pm 9.1 - - - 1010.5 - 0.0 - - - - - - -
24/11:00pm 9.1 - - - 1010.1 - 0.0 - - - - - - -
24/10:30pm 9.5 - - - 1009.7 - 0.0 - - - - - - -
24/10:00pm 9.6 - - - 1009.3 - 0.0 - - - - - - -
24/09:30pm 9.7 - - - 1009.0 - 0.0 - - - - - - -
24/09:00pm 9.6 - - - 1008.5 - 0.0 - - - - - - -
24/08:30pm 9.6 - - - 1007.7 - 0.0 - - - - - - -
24/08:00pm 9.5 - - - 1007.0 - 0.0 - - - - - - -
24/07:30pm 9.8 - - - 1006.2 - 0.0 - - - - - - -
24/07:00pm 9.9 - - - 1005.3 - 0.0 - - - - - - -
24/06:30pm 10.2 - - - 1004.7 - 0.0 - - - - - - -
24/06:00pm 10.3 - - - 1004.1 - 0.0 - - - - - - -
24/05:30pm 10.8 - - - 1003.6 - 0.0 - - - - - - -
24/05:00pm 11.4 - - - 1003.2 - 0.0 - - - - - - -
24/04:30pm 12.0 - - - 1002.6 - 0.0 - - - - - - -
24/04:00pm 12.0 - - - 1002.6 - 0.0 - - - - - - -
24/03:30pm 12.2 - - - 1002.7 - 0.0 - - - - - - -
24/03:00pm 13.0 - - - 1001.8 - 0.0 - - - - - - -
24/02:30pm 13.1 - - - 1001.5 - 0.0 - - - - - - -
24/02:00pm 13.3 - - - 1001.0 - 0.0 - - - - - - -
24/01:30pm 13.4 - - - 1000.7 - 0.0 - - - - - - -
24/01:00pm 13.3 - - - 1001.4 - 0.0 - - - - - - -
24/12:30pm 13.2 - - - 1001.5 - 0.0 - - - - - - -
24/12:00pm 13.5 - - - 1001.7 - 0.0 - - - - - - -
24/11:30am 13.6 - - - 1002.0 - 0.0 - - - - - - -
24/11:00am 13.5 - - - 1002.5 - 0.0 - - - - - - -
24/10:30am 13.8 - - - 1002.7 - 0.0 - - - - - - -
24/10:00am 13.8 - - - 1002.8 - 0.0 - - - - - - -
24/09:30am 13.6 - - - 1002.6 - 0.0 - - - - - - -
24/09:00am 13.3 - - - 1002.2 - 0.0 - - - - - - -
24/08:30am 13.2 - - - 1002.0 - 0.0 - - - - - - -
24/08:00am 13.3 - - - 1001.7 - 0.0 - - - - - - -
24/07:30am 13.1 - - - 1001.6 - 0.0 - - - - - - -
24/07:00am 12.7 - - - 1001.2 - 0.0 - - - - - - -
24/06:30am 12.2 - - - 1001.0 - 0.0 - - - - - - -
24/06:00am 12.0 - - - 1000.7 - 0.0 - - - - - - -
24/05:30am 13.3 - - - 1000.6 - 0.0 - - - - - - -
24/05:00am 12.6 - - - 1000.6 - 0.0 - - - - - - -
24/04:30am 12.4 - - - 1000.3 - 0.0 - - - - - - -
24/04:00am 13.5 - - - 1000.5 - 0.0 - - - - - - -
24/03:30am 13.4 - - - 1000.6 - 0.0 - - - - - - -
24/03:00am 13.5 - - - 1000.8 - 0.0 - - - - - - -
24/02:30am 13.3 - - - 1001.0 - 0.0 - - - - - - -
24/02:00am 13.4 - - - 1001.3 - 0.0 - - - - - - -
24/01:30am 13.5 - - - 1001.3 - 0.0 - - - - - - -
24/01:00am 14.3 - - - 1001.5 - 0.0 - - - - - - -
24/12:30am 14.1 - - - 1001.4 - 0.0 - - - - - - -
24/12:00am 13.7 - - - 1001.7 - 0.0 - - - - - - -
 
Date/Time
EST
Temp
°C
Wind Pressure Rain since
9am
mm
Weather Cloud Vis
km
Sea
Height
m
Swell
Dir  Spd
kts
Gust
kts
hPa Trend Height
m
Period
s
Dir
23/11:30pm 13.7 - - - 1002.2 - 0.0 - - - - - - -
23/11:00pm 12.8 - - - 1002.7 - 0.0 - - - - - - -
23/10:30pm 12.8 - - - 1002.9 - 0.0 - - - - - - -
23/10:00pm 13.4 - - - 1003.2 - 0.0 - - - - - - -
23/09:30pm 13.3 - - - 1003.8 - 0.0 - - - - - - -
23/09:00pm 13.4 - - - 1003.9 - 0.0 - - - - - - -
23/08:30pm 14.0 - - - 1004.2 - 0.0 - - - - - - -
23/08:00pm 13.7 - - - 1004.4 - 0.0 - - - - - - -
23/07:30pm 13.2 - - - 1004.8 - 0.0 - - - - - - -
23/07:00pm 13.3 - - - 1004.8 - 0.0 - - - - - - -
23/06:30pm 13.1 - - - 1005.1 - 0.0 - - - - - - -
23/06:00pm 13.1 - - - 1005.3 - 0.0 - - - - - - -
23/05:30pm 14.1 - - - 1005.2 - 0.0 - - - - - - -
23/05:00pm 14.1 - - - 1005.2 - 0.0 - - - - - - -
23/04:30pm 14.7 - - - 1005.2 - 0.0 - - - - - - -
23/04:00pm 15.5 - - - 1005.3 - 0.0 - - - - - - -
23/03:30pm 15.8 - - - 1005.5 - 0.0 - - - - - - -
23/03:00pm 16.4 - - - 1005.9 - 0.0 - - - - - - -
23/02:30pm 15.5 - - - 1006.1 - 0.0 - - - - - - -
23/02:00pm 14.8 - - - 1006.5 - 0.0 - - - - - - -
23/01:30pm 14.8 - - - 1006.8 - 0.0 - - - - - - -
23/01:00pm 15.5 - - - 1007.4 - 0.0 - - - - - - -
23/12:30pm 15.0 - - - 1007.8 - 0.0 - - - - - - -
23/12:00pm 15.4 - - - 1008.3 - 0.0 - - - - - - -
23/11:30am 14.5 - - - 1008.9 - 0.0 - - - - - - -
23/11:00am 15.1 - - - 1009.5 - 0.0 - - - - - - -
23/10:30am 14.6 - - - 1009.9 - 0.0 - - - - - - -
23/10:00am 14.7 - - - 1010.0 - 0.0 - - - - - - -
23/09:30am 14.0 - - - 1010.4 - 0.0 - - - - - - -
23/09:00am 13.4 - - - 1010.3 - 0.0 - - - - - - -
23/08:30am 12.7 - - - 1010.2 - 0.0 - - - - - - -
23/08:00am 12.2 - - - 1010.2 - 0.0 - - - - - - -
23/07:30am 11.8 - - - 1010.3 - 0.0 - - - - - - -
23/07:00am 11.5 - - - 1010.2 - 0.0 - - - - - - -
23/06:30am 11.8 - - - 1009.8 - 0.0 - - - - - - -
23/06:00am 12.5 - - - 1009.4 - 0.0 - - - - - - -
23/05:30am 12.7 - - - 1009.0 - 0.0 - - - - - - -
23/05:00am 12.9 - - - 1009.0 - 0.0 - - - - - - -
23/04:30am 13.0 - - - 1009.2 - 0.0 - - - - - - -
23/04:00am 13.0 - - - 1009.3 - 0.0 - - - - - - -
23/03:30am 12.8 - - - 1009.7 - 0.0 - - - - - - -
23/03:00am 13.0 - - - 1010.0 - 0.0 - - - - - - -
23/02:30am 12.9 - - - 1010.2 - 0.0 - - - - - - -
23/02:00am 13.0 - - - 1010.2 - 0.0 - - - - - - -
23/01:30am 12.9 - - - 1010.3 - 0.0 - - - - - - -
23/01:00am 13.0 - - - 1010.2 - 0.0 - - - - - - -
23/12:30am 12.9 - - - 1010.4 - 0.0 - - - - - - -
23/12:00am 13.0 - - - 1010.5 - 0.0 - - - - - - -
 
Date/Time
EST
Temp
°C
Wind Pressure Rain since
9am
mm
Weather Cloud Vis
km
Sea
Height
m
Swell
Dir  Spd
kts
Gust
kts
hPa Trend Height
m
Period
s
Dir
22/11:30pm 13.0 - - - 1010.7 - 0.0 - - - - - - -
22/11:00pm 13.0 - - - 1010.8 - 0.0 - - - - - - -
22/10:30pm 12.9 - - - 1010.9 - 0.0 - - - - - - -
22/10:00pm 13.0 - - - 1010.2 - 0.0 - - - - - - -
22/09:30pm 13.0 - - - 1010.0 - 0.0 - - - - - - -
22/09:00pm 13.0 - - - 1009.9 - 0.0 - - - - - - -
22/08:30pm 13.3 - - - 1009.4 - 0.0 - - - - - - -
22/08:00pm 13.5 - - - 1008.8 - 0.0 - - - - - - -
22/07:30pm 13.5 - - - 1008.6 - 0.0 - - - - - - -
22/07:00pm 13.6 - - - 1008.0 - 0.0 - - - - - - -
22/06:30pm 13.7 - - - 1007.4 - 0.0 - - - - - - -
22/06:00pm 13.8 - - - 1007.0 - 0.0 - - - - - - -
22/05:30pm 14.1 - - - 1006.8 - 0.0 - - - - - - -
22/05:00pm 14.5 - - - 1005.7 - 0.0 - - - - - - -
22/04:30pm 14.9 - - - 1005.3 - 0.0 - - - - - - -
22/04:00pm 15.4 - - - 1003.7 - 0.0 - - - - - - -
22/03:30pm 16.2 - - - 1004.0 - 0.0 - - - - - - -
22/03:00pm 16.6 - - - 1003.5 - 0.0 - - - - - - -
22/02:30pm 16.8 - - - 1003.6 - 0.0 - - - - - - -
22/02:00pm 16.8 - - - 1002.3 - 0.0 - - - - - - -
22/01:30pm 16.8 - - - 1002.2 - 0.0 - - - - - - -
22/01:00pm 16.7 - - - 1002.1 - 0.0 - - - - - - -
22/12:30pm 16.6 - - - 1001.9 - 0.0 - - - - - - -
22/12:00pm 16.7 - - - 1002.3 - 0.0 - - - - - - -
22/11:30am 16.3 - - - 1002.6 - 0.0 - - - - - - -
22/11:00am 16.0 - - - 1002.7 - 0.0 - - - - - - -
22/10:30am 15.5 - - - 1003.0 - 0.0 - - - - - - -
22/10:00am 15.1 - - - 1003.3 - 0.0 - - - - - - -
22/09:30am 15.3 - - - 1003.0 - 0.0 - - - - - - -
22/09:00am 15.0 - - - 1002.9 - 0.0 - - - - - - -
22/08:30am 14.9 - - - 1002.0 - 0.0 - - - - - - -
22/08:00am 14.8 - - - 1002.2 - 0.0 - - - - - - -
22/07:30am 14.4 - - - 1002.2 - 0.0 - - - - - - -
22/07:00am 14.3 - - - 1001.6 - 0.0 - - - - - - -
22/06:30am 14.5 - - - 1001.0 - 0.0 - - - - - - -

Other Formats:

Comma delimited format used in spreadsheet applications
http://www.bom.gov.au/fwo/IDN60701/IDN60701.95940.axf

JavaScript Object Notation format (JSON) in row-major order
http://www.bom.gov.au/fwo/IDN60701/IDN60701.95940.json